This demonstration page uses our WeatherBlox Daily Observations layout. Learn more.

Left ArrowRight Arrow

Hourly Observations for September 7, 2017

Temp ( °F °C ) Dew Point ( °F °C ) Humidity (%) Winds ( mph kmh ) Pressure ( in mb ) Visibility ( mi km ) Precip ( " mm )
12:51 am 00:51 Clear 74 23.3 45 7.2 36 36 E 8 13 29.87 1012 10 16.0934 0 0
1:51 am 01:51 Clear 74 23.3 46 7.8 37 37 ESE 8 13 29.87 1011 10 16.0934 0 0
2:51 am 02:51 Clear 74 23.3 47 8.3 38 38 S 8 13 29.86 1011 10 16.0934 0 0
3:51 am 03:51 Clear 74 23.3 47 8.3 38 38 SE 9 15 29.86 1011 10 16.0934 0 0
4:51 am 04:51 Clear 74 23.3 47 8.3 38 38 SE 8 13 29.87 1011 10 16.0934 0 0
5:51 am 05:51 Clear 72 22.2 46 7.8 40 40 SE 7 11 29.88 1012 10 16.0934 0 0
6:51 am 06:51 Sunny 75 23.9 47 8.3 37 37 SE 13 20 29.9 1013 10 16.0934 0 0
7:51 am 07:51 Sunny 79 26.1 48 8.9 34 34 ESE 14 22 29.91 1013 10 16.0934 0 0
8:51 am 08:51 Sunny 83 28.3 48 8.9 30 30 SE 8 13 29.91 1013 10 16.0934 0 0
9:51 am 09:51 Sunny 89 31.7 48 8.9 24 24 SE 9 15 29.92 1013 10 16.0934 0 0
10:51 am 10:51 Sunny 92 33.3 48 8.9 22 22 VRB 6 9 29.89 1012 10 16.0934 0 0
11:51 am 11:51 Sunny 95 35 46 7.8 19 19 SSE 7 11 29.86 1011 10 16.0934 0 0
12:51 pm 12:51 Sunny 96 35.6 46 7.8 18 18 VRB 5 7 29.83 1010 10 16.0934 0 0
1:51 pm 13:51 Sunny 96 35.6 44 6.7 17 17 VRB 3 6 29.8 1009 10 16.0934 0 0
2:51 pm 14:51 Sunny 98 36.7 39 3.9 13 13 VRB 5 7 29.76 1008 9 14.48406 0 0
3:51 pm 15:51 Sunny 99 37.2 40 4.4 13 13 VRB 6 9 29.72 1006 10 16.0934 0 0
4:51 pm 16:51 Sunny 98 36.7 39 3.9 13 13 Calm 29.71 1006 10 16.0934 0 0
5:51 pm 17:51 Mostly Sunny 94 34.4 41 5 16 16 W 7 11 29.72 1006 10 16.0934 0 0
6:51 pm 18:51 Clear 92 33.3 41 5 17 17 SW 14 22 29.72 1007 10 16.0934 0 0
7:51 pm 19:51 Clear 87 30.6 42 5.6 21 21 N 8 13 29.75 1007 10 16.0934 0 0
8:51 pm 20:51 Clear 85 29.4 41 5 21 21 NW 5 7 29.76 1008 10 16.0934 0 0
9:51 pm 21:51 Clear 81 27.2 44 6.7 27 27 E 6 9 29.77 1008 10 16.0934 0 0
10:51 pm 22:51 Clear 76 24.4 48 8.9 37 37 SSE 9 15 29.8 1009 10 16.0934 0 0
11:51 pm 23:51 Clear 77 25 43 6.1 30 30 N 5 7 29.81 1010 10 16.0934 0 0

Powered by AerisWeather